Location: Gez
(43.0167°N, 0.1000°W)
Time: 03:05:58
(UTC+00:00)

COBE Rocket - Pass Details

Date: 08 August 2025
Orbit: 674 x 773 km, 97.1° (Epoch: 12 December)

Event Time Altitude Azimuth Distance (km) Brightness Sun altitude
Rises 21:41:22 0° 10° (N) 3,057 7.7 -22.4°
Reaches altitude 10° 21:43:35 10° 10° (N) 2,147 6.9 -22.7°
Maximum altitude 21:48:17 84° 285° (WNW) 710 3.8 -23.2°
Enters shadow 21:49:27 52° 202° (SSW) 870 4.0 -23.3°
